Location: New Frontier Mobile Home Park
(32.8448°N, 116.9675°W)
Time: 23:00:09
(UTC+00:00)

SL-16 R/B - Pass Details

Date: 14 July 2020
Orbit: 985 x 1006 km, 99.5° (Epoch: 05 August)

Event Time Altitude Azimuth Distance (km) Brightness Sun altitude
Exits shadow 08:57:24 37° 89° (E) 1,518 3.5 -33.5°
Maximum altitude 08:58:20 39° 69° (ENE) 1,468 3.6 -33.4°
Drops below altitude 10° 09:04:02 10° 3° (N) 2,783 5.7 -33.1°
Sets 09:06:41 0° 356° (N) 3,738 6.4 -32.9°
